YZ-1 R/B, 43210

Orbit data source: Space-Track

YZ-1 R/B, 43210 is space debris originally from a launch on Mon, 12 Feb 2018 UTC launched from the Xichang Space Center, China (XSC). Debris objects in space refer to the collection of defunct objects orbiting the Earth. Examples of debris include non-operational satellites, rocket bodies, and fragments generated from explosions, collisions, or faulty payload assembly.

Loading next visibility...
Identifier
43210, 2018-018D
Orbit
Active
Country
Flag of CNCN / PRC
Related business
Manufacturer
CALT
Mission
Spacecraft
Bus & Motor
YZ-1, Unknown motor
Mass
~2,075 kg wet, ~2,075 kg dry
Launch date (UTC)
2018-02-12 (8 years ago)
Launch vehicle
Unknown
Launch site
Xichang Space Center, China (XSC)
Object type
Payload
Rocket body
Debris
Shape & HBR
Double Cone, 2.0 m
Radar Cross Section
5.890 m², Large (>1 m²)

Expand to show TLE details & history
Last TLE update: 2 days ago

TLE from 2 days ago
0 YZ-1 R/B
1 43210U 18018D   26171.17483759 -.00000057  00000-0  00000+0 0  9991
2 43210  56.4301  70.9606 0038430 102.4520 258.0078  1.79055424 54614
Epoch: 2026-06-20T04:11Z
TLE epoch observation values (Epoch: 2026-06-20T04:11:45.967Z)
Latitude
0.00006°
Longitude
99.64008°
Altitude
22,292.159 km
Speed
3.727 km/s
True Right ascension
04h 43m 53s
True Declination
0° 00' 00"
Sunlit
Object was in daylight at epoch
Visualization orbit readout
Latitude
Unknown
Longitude
Unknown
Altitude
Unknown
Speed
Unknown
Apparent Right ascension
Unknown
Apparent Declination
Unknown
Sunlit
N/A
Visualization observer readout
Local Sidereal Time
21:57:42
Azimuth
Unknown
Elevation
Unknown
Doppler factor
Unknown
Orbital elements
Apogee altitude
22,378.755 km
Perigee altitude
22,158.576 km
Semi-major axis
28,646.803 km
Eccentricity
0.00384
Inclination
56.4301°
RAAN
70.9606°
Arg. of periapsis
102.452°
True anomaly
257.57747°
Mean anomaly
258.0078°
Eccentric anomaly
257.79259°
Mean motion
0.44764 °/min
Orbital period
804.22 mins
BSTAR
0
Loading maneuver chart data...
Computing Atmospheric mass density...
Loading historical data...
Loading historical data...
Loading historical data...
Loading historical data...
Loading historical data...
Loading historical data...
Loading historical data...
Other satellites on launch #18 in the year 2018 (2018-02-12 UTC)

Documentation

Showing up to 5 results
|